Mount Sterling, KY

3:18 AM EDT on October 15, 2019 (GMT -0400)
Mount Sterling-Montgomery County

Weather History for KIOB - August, 2019

Change the Weather History Date:

Wednesday, August 7, 2019

  Actual Average Record
Temperature  
Mean Temperature 74 °F -  
Max Temperature 84 °F 82 °F 87 °F (2018)
Min Temperature 64 °F 63 °F 62 °F (2014)
Cooling Degree Days 9    
Growing Degree Days 24 (Base 50)    
Moisture  
Dew Point 66 °F    
Average Humidity 78    
Maximum Humidity 94    
Minimum Humidity 54    
Precipitation  
Precipitation 0.01 in - - ()
Sea Level Pressure  
Sea Level Pressure 29.90 in    
Wind  
Wind Speed 4 mph (West)    
Max Wind Speed 9 mph    
Max Gust Speed -    
Visibility 10 miles    
Events Rain    
Averages and records for this station are not official NWS values.
T = Trace of Precipitation, MM = Missing Value Source: NWS Daily Summary

Daily Weather History Graph

Daily Weather History Graph

Search for Another Location

Airport or City:

Astronomy

Aug. 07, 2019 Rise Set
Actual Time 6:43 AM EDT 8:39 PM EDT
Civil Twilight 6:15 AM EDT 9:07 PM EDT
Nautical Twilight 5:40 AM EDT 9:42 PM EDT
Astronomical Twilight 5:02 AM EDT 10:19 PM EDT
Moon 2:07 PM EDT (8/7) 12:31 AM EDT (8/7)
Length of Visible Light 14h 52m
Length of Day
13h 55m
Waxing Crescent, 49% of the Moon is Illuminated
Aug 7
Waxing Crescent
Aug 7
First Quarter
Aug 15
Full
Aug 23
Last Quarter
Aug 30
New

Hourly Weather History & Observations

Time (EDT) Temp. Heat Index Dew Point Humidity Pressure Visibility Wind Dir Wind Speed Gust Speed Precip Events Conditions
12:15 AM 73.4 °F - 68.0 °F 83% 29.86 in 7.0 mi SW 4.6 mph - 0.01 in Rain Light Rain
12:35 AM 71.6 °F - 68.0 °F 88% 29.86 in 10.0 mi SW 3.5 mph - 0.01 in   Scattered Clouds
12:55 AM 73.4 °F - 69.8 °F 88% 29.85 in 10.0 mi South 5.8 mph - 0.01 in   Scattered Clouds
1:15 AM 73.4 °F - 68.0 °F 83% 29.85 in 10.0 mi Calm Calm - N/A   Clear
1:35 AM 73.4 °F - 69.8 °F 88% 29.85 in 10.0 mi Calm Calm - N/A   Mostly Cloudy
1:55 AM 71.6 °F - 69.8 °F 94% 29.86 in 10.0 mi North 6.9 mph - N/A   Overcast
2:15 AM 71.6 °F - 69.8 °F 94% 29.86 in 10.0 mi NNE 4.6 mph - N/A   Overcast
2:35 AM 69.8 °F - 68.0 °F 94% 29.88 in 10.0 mi ENE 8.1 mph - N/A   Overcast
2:55 AM 68.0 °F - 62.6 °F 83% 29.88 in 10.0 mi NE 3.5 mph - N/A   Overcast
3:15 AM 68.0 °F - 62.6 °F 83% 29.90 in 10.0 mi Calm Calm - N/A   Overcast
3:35 AM 68.0 °F - 64.4 °F 88% 29.92 in 10.0 mi Calm Calm - N/A   Overcast
3:55 AM 68.0 °F - 64.4 °F 88% 29.91 in 10.0 mi ENE 5.8 mph - N/A   Overcast
4:15 AM 68.0 °F - 64.4 °F 88% 29.91 in 10.0 mi East 4.6 mph - N/A   Mostly Cloudy
4:35 AM 68.0 °F - 64.4 °F 88% 29.91 in 10.0 mi Calm Calm - N/A   Mostly Cloudy
4:55 AM 66.2 °F - 64.4 °F 94% 29.90 in 10.0 mi SSW 3.5 mph - N/A   Mostly Cloudy
5:15 AM 64.4 °F - 62.6 °F 94% 29.90 in 10.0 mi SSW 4.6 mph - N/A   Scattered Clouds
5:35 AM 64.4 °F - 62.6 °F 94% 29.89 in 10.0 mi SW 3.5 mph - N/A   Clear
5:55 AM 64.4 °F - 62.6 °F 94% 29.88 in 10.0 mi SW 4.6 mph - N/A   Clear
6:15 AM 64.4 °F - 62.6 °F 94% 29.88 in 10.0 mi SW 4.6 mph - N/A   Clear
6:35 AM 64.4 °F - 62.6 °F 94% 29.90 in 10.0 mi SW 4.6 mph - N/A   Clear
6:55 AM 64.4 °F - 62.6 °F 94% 29.90 in 10.0 mi SW 4.6 mph - N/A   Clear
7:15 AM 64.4 °F - 62.6 °F 94% 29.91 in 10.0 mi WSW 6.9 mph - N/A   Mostly Cloudy
7:35 AM 68.0 °F - 62.6 °F 83% 29.91 in 10.0 mi WSW 5.8 mph - N/A   Mostly Cloudy
7:55 AM 68.0 °F - 64.4 °F 88% 29.92 in 10.0 mi WSW 5.8 mph - N/A   Mostly Cloudy
8:15 AM 69.8 °F - 64.4 °F 83% 29.92 in 10.0 mi WSW 6.9 mph - N/A   Scattered Clouds
8:35 AM 69.8 °F - 64.4 °F 83% 29.92 in 10.0 mi WSW 5.8 mph - N/A   Scattered Clouds
8:55 AM 69.8 °F - 64.4 °F 83% 29.93 in 10.0 mi West 6.9 mph - N/A   Mostly Cloudy
9:15 AM 71.6 °F - 64.4 °F 78% 29.93 in 10.0 mi WSW 8.1 mph - N/A   Mostly Cloudy
9:35 AM 69.8 °F - 64.4 °F 83% 29.92 in 10.0 mi West 5.8 mph - N/A   Mostly Cloudy
9:55 AM 71.6 °F - 64.4 °F 78% 29.92 in 10.0 mi WSW 9.2 mph - N/A   Mostly Cloudy
10:15 AM 71.6 °F - 64.4 °F 78% 29.92 in 10.0 mi WSW 8.1 mph - N/A   Mostly Cloudy
10:35 AM 73.4 °F - 66.2 °F 78% 29.92 in 10.0 mi West 9.2 mph - N/A   Overcast
10:55 AM 73.4 °F - 66.2 °F 78% 29.93 in 10.0 mi West 5.8 mph - N/A   Overcast
11:15 AM 73.4 °F - 66.2 °F 78% 29.93 in 10.0 mi WSW 6.9 mph - N/A   Mostly Cloudy
11:35 AM 75.2 °F - 66.2 °F 73% 29.92 in 10.0 mi SW 6.9 mph - N/A   Scattered Clouds
11:55 AM 77.0 °F - 68.0 °F 74% 29.92 in 10.0 mi WSW 6.9 mph - N/A   Mostly Cloudy
12:15 PM 78.8 °F - 68.0 °F 69% 29.92 in 10.0 mi West 8.1 mph - N/A   Overcast
12:35 PM 77.0 °F - 68.0 °F 74% 29.92 in 10.0 mi West 5.8 mph - N/A   Overcast
12:55 PM 78.8 °F - 68.0 °F 69% 29.92 in 10.0 mi West 5.8 mph - N/A   Overcast
1:15 PM 78.8 °F - 68.0 °F 69% 29.92 in 10.0 mi WSW 6.9 mph - N/A   Mostly Cloudy
1:35 PM 80.6 °F 83.2 °F 68.0 °F 65% 29.92 in 10.0 mi WSW 5.8 mph - N/A   Scattered Clouds
1:55 PM 82.4 °F 85.4 °F 68.0 °F 62% 29.92 in 10.0 mi West 3.5 mph - N/A   Scattered Clouds
2:35 PM 80.6 °F 83.2 °F 68.0 °F 65% 29.91 in 10.0 mi WNW 5.8 mph - N/A   Mostly Cloudy
2:55 PM 80.6 °F 83.2 °F 68.0 °F 65% 29.90 in 10.0 mi West 5.8 mph - N/A   Scattered Clouds
3:15 PM 80.6 °F 83.2 °F 68.0 °F 65% 29.89 in 10.0 mi NW 4.6 mph - N/A   Mostly Cloudy
3:55 PM 80.6 °F 83.2 °F 68.0 °F 65% 29.89 in 10.0 mi Calm Calm - N/A   Mostly Cloudy
4:15 PM 84.2 °F 87.3 °F 68.0 °F 58% 29.89 in 10.0 mi West 9.2 mph - N/A   Overcast
4:35 PM 84.2 °F 87.3 °F 68.0 °F 58% 29.89 in 10.0 mi West 6.9 mph - N/A   Mostly Cloudy
4:55 PM 82.4 °F 85.4 °F 68.0 °F 62% 29.88 in 10.0 mi WNW 5.8 mph - N/A   Mostly Cloudy
5:15 PM 84.2 °F 87.3 °F 68.0 °F 58% 29.88 in 10.0 mi WNW 4.6 mph - N/A   Unknown
5:35 PM 82.4 °F 84.6 °F 66.2 °F 58% 29.88 in 10.0 mi NW 4.6 mph - N/A   Scattered Clouds
5:55 PM 84.2 °F 86.6 °F 66.2 °F 55% 29.87 in 10.0 mi West 4.6 mph - N/A   Scattered Clouds
6:15 PM 82.4 °F 83.9 °F 64.4 °F 54% 29.86 in 10.0 mi West 5.8 mph - N/A   Clear
6:35 PM 82.4 °F 83.9 °F 64.4 °F 54% 29.86 in 10.0 mi NW 6.9 mph - N/A   Scattered Clouds
6:55 PM 82.4 °F 83.9 °F 64.4 °F 54% 29.86 in 10.0 mi NW 4.6 mph - N/A   Clear
7:15 PM 82.4 °F 83.9 °F 64.4 °F 54% 29.86 in 10.0 mi NNW 3.5 mph - N/A   Scattered Clouds
7:35 PM 80.6 °F 82.3 °F 64.4 °F 58% 29.86 in 10.0 mi NW 4.6 mph - N/A   Scattered Clouds
7:55 PM 80.6 °F 82.7 °F 66.2 °F 61% 29.87 in 10.0 mi Calm Calm - N/A   Clear
8:15 PM 78.8 °F - 64.4 °F 61% 29.88 in 10.0 mi NW 3.5 mph - N/A   Clear
8:35 PM 75.2 °F - 66.2 °F 73% 29.88 in 10.0 mi Calm Calm - N/A   Clear
8:55 PM 73.4 °F - 66.2 °F 78% 29.89 in 10.0 mi Calm Calm - N/A   Scattered Clouds
9:15 PM 71.6 °F - 66.2 °F 83% 29.89 in 10.0 mi Calm Calm - N/A   Clear
9:35 PM 69.8 °F - 64.4 °F 83% 29.90 in 10.0 mi Calm Calm - N/A   Clear
9:55 PM 69.8 °F - 66.2 °F 88% 29.91 in 10.0 mi West 3.5 mph - N/A   Clear
10:15 PM 68.0 °F - 66.2 °F 94% 29.90 in 10.0 mi Calm Calm - N/A   Clear
10:35 PM 68.0 °F - 66.2 °F 94% 29.91 in 10.0 mi Calm Calm - N/A   Clear
10:55 PM 68.0 °F - 64.4 °F 88% 29.91 in 7.0 mi Calm Calm - N/A   Clear
11:15 PM 66.2 °F - 64.4 °F 94% 29.91 in 7.0 mi Calm Calm - N/A   Clear
11:35 PM 66.2 °F - 64.4 °F 94% 29.91 in 7.0 mi Calm Calm - N/A   Clear
11:55 PM 66.2 °F - 64.4 °F 94% 29.91 in 7.0 mi Calm Calm - N/A   Clear